Retour au catalogue

OPS 4682 DEB

ActifPO
NORAD 18268·DEBRIS·🇺🇸 United States

Lancé Apr 3, 1965 depuis Vandenberg Space Force Base

Loading…

Prochains Passages (prochaines 24 heures)

TLE

FraisSource: Space-Track

Époque: Sep 14, 2026, 06:55 UTC

1 18268U 65027X   26257.28862073  .00000480  00000-0  16167-2 0  9998
2 18268  90.2508   6.7302 0035713 184.9072 175.1704 12.97775209673492

Suivez OPS 4682 DEB en temps réel avec AllMySat

Download on the App Store